Year,Month,Day,Hour,Minute,Value (Times are PST for temperature in C)
2012,07,06,00,00,11.30
2012,07,06,00,01,11.30
2012,07,06,00,02,11.20
2012,07,06,00,03,11.20
2012,07,06,00,04,11.20
2012,07,06,00,05,11.20
2012,07,06,00,06,11.20
2012,07,06,00,07,11.20
2012,07,06,00,08,11.20
2012,07,06,00,09,11.20
2012,07,06,00,10,11.20
2012,07,06,00,11,11.20
2012,07,06,00,12,11.20
2012,07,06,00,13,11.20
2012,07,06,00,14,11.20
2012,07,06,00,15,11.20
2012,07,06,00,16,11.20
2012,07,06,00,17,11.10
2012,07,06,00,18,11.10
2012,07,06,00,19,11.10
2012,07,06,00,20,11.10
2012,07,06,00,21,11.10
2012,07,06,00,22,11.10
2012,07,06,00,23,11.00
2012,07,06,00,24,11.00
2012,07,06,00,25,11.00
2012,07,06,00,26,11.00
2012,07,06,00,27,10.90
2012,07,06,00,28,10.90
2012,07,06,00,29,10.90
2012,07,06,00,30,10.90
2012,07,06,00,31,10.90
2012,07,06,00,32,10.80
2012,07,06,00,33,10.80
2012,07,06,00,34,10.80
2012,07,06,00,35,10.80
2012,07,06,00,36,10.80
2012,07,06,00,37,10.80
2012,07,06,00,38,10.80
2012,07,06,00,39,10.80
2012,07,06,00,40,10.80
2012,07,06,00,41,10.80
2012,07,06,00,42,10.80
2012,07,06,00,43,10.80
2012,07,06,00,44,10.80
2012,07,06,00,45,10.80
2012,07,06,00,46,10.70
2012,07,06,00,47,10.70
2012,07,06,00,48,10.70
2012,07,06,00,49,10.70
2012,07,06,00,50,10.70
2012,07,06,00,51,10.70
2012,07,06,00,52,10.70
2012,07,06,00,53,10.70
2012,07,06,00,54,10.70
2012,07,06,00,55,10.70
2012,07,06,00,56,10.70
2012,07,06,00,57,10.70
2012,07,06,00,58,10.70
2012,07,06,00,59,10.70
2012,07,06,01,00,10.60
2012,07,06,01,01,10.60
2012,07,06,01,02,10.60
2012,07,06,01,03,10.60
2012,07,06,01,04,10.60
2012,07,06,01,05,10.60
2012,07,06,01,06,10.60
2012,07,06,01,07,10.60
2012,07,06,01,08,10.60
2012,07,06,01,09,10.60
2012,07,06,01,10,10.60
2012,07,06,01,11,10.60
2012,07,06,01,12,10.50
2012,07,06,01,13,10.50
2012,07,06,01,14,10.50
2012,07,06,01,15,10.50
2012,07,06,01,16,10.50
2012,07,06,01,17,10.50
2012,07,06,01,18,10.50
2012,07,06,01,19,10.50
2012,07,06,01,20,10.40
2012,07,06,01,21,10.40
2012,07,06,01,22,10.40
2012,07,06,01,23,10.40
2012,07,06,01,24,10.40
2012,07,06,01,25,10.40
2012,07,06,01,26,10.40
2012,07,06,01,27,10.40
2012,07,06,01,28,10.40
2012,07,06,01,29,10.40
2012,07,06,01,30,10.40
2012,07,06,01,31,10.40
2012,07,06,01,32,10.40
2012,07,06,01,33,10.40
2012,07,06,01,34,10.40
2012,07,06,01,35,10.40
2012,07,06,01,36,10.30
2012,07,06,01,37,10.30
2012,07,06,01,38,10.30
2012,07,06,01,39,10.30
2012,07,06,01,40,10.30
2012,07,06,01,41,10.30
2012,07,06,01,42,10.30
2012,07,06,01,43,10.30
2012,07,06,01,44,10.30
2012,07,06,01,45,10.30
2012,07,06,01,46,10.30
2012,07,06,01,47,10.30
2012,07,06,01,48,10.30
2012,07,06,01,49,10.30
2012,07,06,01,50,10.30
2012,07,06,01,51,10.30
2012,07,06,01,52,10.30
2012,07,06,01,53,10.30
2012,07,06,01,54,10.30
2012,07,06,01,55,10.30
2012,07,06,01,56,10.30
2012,07,06,01,57,10.30
2012,07,06,01,58,10.30
2012,07,06,01,59,10.30
2012,07,06,02,00,10.30
2012,07,06,02,01,10.30
2012,07,06,02,02,10.30
2012,07,06,02,03,10.30
2012,07,06,02,04,10.20
2012,07,06,02,05,10.20
2012,07,06,02,06,10.20
2012,07,06,02,07,10.20
2012,07,06,02,08,10.20
2012,07,06,02,09,10.20
2012,07,06,02,10,10.20
2012,07,06,02,11,10.20
2012,07,06,02,12,10.20
2012,07,06,02,13,10.10
2012,07,06,02,14,10.10
2012,07,06,02,15,10.10
2012,07,06,02,16,10.10
2012,07,06,02,17,10.10
2012,07,06,02,18,10.10
2012,07,06,02,19,10.10
2012,07,06,02,20,10.10
2012,07,06,02,21,10.10
2012,07,06,02,22,10.10
2012,07,06,02,23,10.10
2012,07,06,02,24,10.10
2012,07,06,02,25,10.10
2012,07,06,02,26,10.10
2012,07,06,02,27,10.00
2012,07,06,02,28,10.00
2012,07,06,02,29,10.00
2012,07,06,02,30,10.00
2012,07,06,02,31,10.00
2012,07,06,02,32,9.90
2012,07,06,02,33,9.90
2012,07,06,02,34,10.00
2012,07,06,02,35,9.90
2012,07,06,02,36,9.90
2012,07,06,02,37,9.90
2012,07,06,02,38,9.90
2012,07,06,02,39,9.90
2012,07,06,02,40,9.90
2012,07,06,02,41,10.00
2012,07,06,02,42,10.00
2012,07,06,02,43,10.00
2012,07,06,02,44,9.90
2012,07,06,02,45,9.90
2012,07,06,02,46,9.90
2012,07,06,02,47,9.90
2012,07,06,02,48,9.90
2012,07,06,02,49,9.90
2012,07,06,02,50,9.90
2012,07,06,02,51,9.90
2012,07,06,02,52,9.90
2012,07,06,02,53,9.90
2012,07,06,02,54,9.90
2012,07,06,02,55,9.80
2012,07,06,02,56,9.80
2012,07,06,02,57,9.80
2012,07,06,02,58,9.80
2012,07,06,02,59,9.80
2012,07,06,03,00,9.80
2012,07,06,03,01,9.80
2012,07,06,03,02,9.80
2012,07,06,03,03,9.80
2012,07,06,03,04,9.80
2012,07,06,03,05,9.80
2012,07,06,03,06,9.80
2012,07,06,03,07,9.80
2012,07,06,03,08,9.80
2012,07,06,03,09,9.70
2012,07,06,03,10,9.70
2012,07,06,03,11,9.70
2012,07,06,03,12,9.70
2012,07,06,03,13,9.70
2012,07,06,03,14,9.70
2012,07,06,03,15,9.70
2012,07,06,03,16,9.70
2012,07,06,03,17,9.70
2012,07,06,03,18,9.70
2012,07,06,03,19,9.70
2012,07,06,03,20,9.70
2012,07,06,03,21,9.70
2012,07,06,03,22,9.70
2012,07,06,03,23,9.70
2012,07,06,03,24,9.70
2012,07,06,03,25,9.60
2012,07,06,03,26,9.60
2012,07,06,03,27,9.60
2012,07,06,03,28,9.60
2012,07,06,03,29,9.60
2012,07,06,03,30,9.60
2012,07,06,03,31,9.60
2012,07,06,03,32,9.60
2012,07,06,03,33,9.60
2012,07,06,03,34,9.60
2012,07,06,03,35,9.60
2012,07,06,03,36,9.60
2012,07,06,03,37,9.60
2012,07,06,03,38,9.60
2012,07,06,03,39,9.60
2012,07,06,03,40,9.50
2012,07,06,03,41,9.50
2012,07,06,03,42,9.50
2012,07,06,03,43,9.50
2012,07,06,03,44,9.50
2012,07,06,03,45,9.50
2012,07,06,03,46,9.50
2012,07,06,03,47,9.40
2012,07,06,03,48,9.40
2012,07,06,03,49,9.40
2012,07,06,03,50,9.40
2012,07,06,03,51,9.40
2012,07,06,03,52,9.40
2012,07,06,03,53,9.40
2012,07,06,03,54,9.40
2012,07,06,03,55,9.40
2012,07,06,03,56,9.40
2012,07,06,03,57,9.40
2012,07,06,03,58,9.40
2012,07,06,03,59,9.40
2012,07,06,04,00,9.40
2012,07,06,04,01,9.40
2012,07,06,04,02,9.40
2012,07,06,04,03,9.40
2012,07,06,04,04,9.40
2012,07,06,04,05,9.40
2012,07,06,04,06,9.30
2012,07,06,04,07,9.30
2012,07,06,04,08,9.30
2012,07,06,04,09,9.30
2012,07,06,04,10,9.30
2012,07,06,04,11,9.30
2012,07,06,04,12,9.30
2012,07,06,04,13,9.30
2012,07,06,04,14,9.30
2012,07,06,04,15,9.30
2012,07,06,04,16,9.30
2012,07,06,04,17,9.30
2012,07,06,04,18,9.30
2012,07,06,04,19,9.30
2012,07,06,04,20,9.30
2012,07,06,04,21,9.30
2012,07,06,04,22,9.30
2012,07,06,04,23,9.30
2012,07,06,04,24,9.30
2012,07,06,04,25,9.30
2012,07,06,04,26,9.30
2012,07,06,04,27,9.30
2012,07,06,04,28,9.30
2012,07,06,04,29,9.30
2012,07,06,04,30,9.20
2012,07,06,04,31,9.20
2012,07,06,04,32,9.20
2012,07,06,04,33,9.30
2012,07,06,04,34,9.30
2012,07,06,04,35,9.20
2012,07,06,04,36,9.20
2012,07,06,04,37,9.20
2012,07,06,04,38,9.20
2012,07,06,04,39,9.20
2012,07,06,04,40,9.20
2012,07,06,04,41,9.20
2012,07,06,04,42,9.20
2012,07,06,04,43,9.20
2012,07,06,04,44,9.20
2012,07,06,04,45,9.20
2012,07,06,04,46,9.20
2012,07,06,04,47,9.20
2012,07,06,04,48,9.20
2012,07,06,04,49,9.20
2012,07,06,04,50,9.20
2012,07,06,04,51,9.20
2012,07,06,04,52,9.20
2012,07,06,04,53,9.20
2012,07,06,04,54,9.20
2012,07,06,04,55,9.20
2012,07,06,04,56,9.20
2012,07,06,04,57,9.20
2012,07,06,04,58,9.20
2012,07,06,04,59,9.20
2012,07,06,05,00,9.20
2012,07,06,05,01,9.20
2012,07,06,05,02,9.20
2012,07,06,05,03,9.20
2012,07,06,05,04,9.10
2012,07,06,05,05,9.10
2012,07,06,05,06,9.10
2012,07,06,05,07,9.10
2012,07,06,05,08,9.10
2012,07,06,05,09,9.10
2012,07,06,05,10,9.10
2012,07,06,05,11,9.10
2012,07,06,05,12,9.10
2012,07,06,05,13,9.10
2012,07,06,05,14,9.10
2012,07,06,05,15,9.10
2012,07,06,05,16,9.10
2012,07,06,05,17,9.10
2012,07,06,05,18,9.10
2012,07,06,05,19,9.10
2012,07,06,05,20,9.10
2012,07,06,05,21,9.10
2012,07,06,05,22,9.00
2012,07,06,05,23,9.00
2012,07,06,05,24,9.00
2012,07,06,05,25,9.00
2012,07,06,05,26,9.00
2012,07,06,05,27,9.00
2012,07,06,05,28,9.00
2012,07,06,05,29,9.00
2012,07,06,05,30,9.00
2012,07,06,05,31,9.00
2012,07,06,05,32,9.00
2012,07,06,05,33,9.00
2012,07,06,05,34,9.00
2012,07,06,05,35,9.00
2012,07,06,05,36,9.00
2012,07,06,05,37,8.90
2012,07,06,05,38,8.90
2012,07,06,05,39,8.90
2012,07,06,05,40,8.90
2012,07,06,05,41,8.90
2012,07,06,05,42,8.90
2012,07,06,05,43,8.90
2012,07,06,05,44,8.90
2012,07,06,05,45,8.90
2012,07,06,05,46,8.90
2012,07,06,05,47,8.90
2012,07,06,05,48,8.90
2012,07,06,05,49,8.90
2012,07,06,05,50,8.90
2012,07,06,05,51,8.90
2012,07,06,05,52,8.90
2012,07,06,05,53,8.90
2012,07,06,05,54,8.90
2012,07,06,05,55,8.90
2012,07,06,05,56,8.90
2012,07,06,05,57,8.90
2012,07,06,05,58,8.90
2012,07,06,05,59,8.90
2012,07,06,06,00,8.90
2012,07,06,06,01,8.90
2012,07,06,06,02,8.90
2012,07,06,06,03,8.90
2012,07,06,06,04,8.90
2012,07,06,06,05,8.90
2012,07,06,06,06,8.80
2012,07,06,06,07,8.80
2012,07,06,06,08,8.80
2012,07,06,06,09,8.80
2012,07,06,06,10,8.80
2012,07,06,06,11,8.80
2012,07,06,06,12,8.80
2012,07,06,06,13,8.80
2012,07,06,06,14,8.80
2012,07,06,06,15,8.80
2012,07,06,06,16,8.80
2012,07,06,06,17,8.80
2012,07,06,06,18,8.80
2012,07,06,06,19,8.90
2012,07,06,06,20,8.90
2012,07,06,06,21,8.90
2012,07,06,06,22,8.90
2012,07,06,06,23,8.90
2012,07,06,06,24,8.90
2012,07,06,06,25,8.90
2012,07,06,06,26,8.90
2012,07,06,06,27,8.90
2012,07,06,06,28,8.90
2012,07,06,06,29,8.90
2012,07,06,06,30,8.90
2012,07,06,06,31,8.90
2012,07,06,06,32,8.90
2012,07,06,06,33,8.90
2012,07,06,06,34,9.00
2012,07,06,06,35,9.00
2012,07,06,06,36,9.00
2012,07,06,06,37,9.00
2012,07,06,06,38,9.00
2012,07,06,06,39,9.00
2012,07,06,06,40,9.10
2012,07,06,06,41,9.10
2012,07,06,06,42,9.10
2012,07,06,06,43,9.10
2012,07,06,06,44,9.10
2012,07,06,06,45,9.10
2012,07,06,06,46,9.10
2012,07,06,06,47,9.10
2012,07,06,06,48,9.10
2012,07,06,06,49,9.10
2012,07,06,06,50,9.10
2012,07,06,06,51,9.10
2012,07,06,06,52,9.10
2012,07,06,06,53,9.10
2012,07,06,06,54,9.20
2012,07,06,06,55,9.20
2012,07,06,06,56,9.20
2012,07,06,06,57,9.20
2012,07,06,06,58,9.20
2012,07,06,06,59,9.30
2012,07,06,07,00,9.30
2012,07,06,07,01,9.30
2012,07,06,07,02,9.30
2012,07,06,07,03,9.30
2012,07,06,07,04,9.30
2012,07,06,07,05,9.30
2012,07,06,07,06,9.30
2012,07,06,07,07,9.30
2012,07,06,07,08,9.40
2012,07,06,07,09,9.40
2012,07,06,07,10,9.40
2012,07,06,07,11,9.40
2012,07,06,07,12,9.40
2012,07,06,07,13,9.50
2012,07,06,07,14,9.50
2012,07,06,07,15,9.60
2012,07,06,07,16,9.60
2012,07,06,07,17,9.60
2012,07,06,07,18,9.60
2012,07,06,07,19,9.70
2012,07,06,07,20,9.70
2012,07,06,07,21,9.80
2012,07,06,07,22,9.80
2012,07,06,07,23,9.80
2012,07,06,07,24,9.80
2012,07,06,07,25,9.90
2012,07,06,07,26,9.90
2012,07,06,07,27,9.90
2012,07,06,07,28,10.00
2012,07,06,07,29,10.00
2012,07,06,07,30,10.00
2012,07,06,07,31,10.10
2012,07,06,07,32,10.10
2012,07,06,07,33,10.10
2012,07,06,07,34,10.20
2012,07,06,07,35,10.20
2012,07,06,07,36,10.20
2012,07,06,07,37,10.20
2012,07,06,07,38,10.30
2012,07,06,07,39,10.30
2012,07,06,07,40,10.30
2012,07,06,07,41,10.30
2012,07,06,07,42,10.30
2012,07,06,07,43,10.40
2012,07,06,07,44,10.40
2012,07,06,07,45,10.40
2012,07,06,07,46,10.40
2012,07,06,07,47,10.50
2012,07,06,07,48,10.50
2012,07,06,07,49,10.60
2012,07,06,07,50,10.60
2012,07,06,07,51,10.60
2012,07,06,07,52,10.70
2012,07,06,07,53,10.70
2012,07,06,07,54,10.80
2012,07,06,07,55,10.80
2012,07,06,07,56,10.80
2012,07,06,07,57,10.90
2012,07,06,07,58,10.90
2012,07,06,07,59,10.90
2012,07,06,08,00,11.00
2012,07,06,08,01,11.00
2012,07,06,08,02,11.10
2012,07,06,08,03,11.10
2012,07,06,08,04,11.20
2012,07,06,08,05,11.20
2012,07,06,08,06,11.20
2012,07,06,08,07,11.30
2012,07,06,08,08,11.30
2012,07,06,08,09,11.30
2012,07,06,08,10,11.40
2012,07,06,08,11,11.40
2012,07,06,08,12,11.40
2012,07,06,08,13,11.40
2012,07,06,08,14,11.50
2012,07,06,08,15,11.50
2012,07,06,08,16,11.50
2012,07,06,08,17,11.60
2012,07,06,08,18,11.60
2012,07,06,08,19,11.70
2012,07,06,08,20,11.70
2012,07,06,08,21,11.80
2012,07,06,08,22,11.80
2012,07,06,08,23,11.80
2012,07,06,08,24,11.90
2012,07,06,08,25,11.90
2012,07,06,08,26,12.00
2012,07,06,08,27,12.00
2012,07,06,08,28,12.10
2012,07,06,08,29,12.10
2012,07,06,08,30,12.10
2012,07,06,08,31,12.10
2012,07,06,08,32,12.20
2012,07,06,08,33,12.20
2012,07,06,08,34,12.20
2012,07,06,08,35,12.20
2012,07,06,08,36,12.20
2012,07,06,08,37,12.20
2012,07,06,08,38,12.30
2012,07,06,08,39,12.30
2012,07,06,08,40,12.30
2012,07,06,08,41,12.30
2012,07,06,08,42,12.40
2012,07,06,08,43,12.40
2012,07,06,08,44,12.40
2012,07,06,08,45,12.40
2012,07,06,08,46,12.50
2012,07,06,08,47,12.50
2012,07,06,08,48,12.60
2012,07,06,08,49,12.60
2012,07,06,08,50,12.70
2012,07,06,08,51,12.70
2012,07,06,08,52,12.70
2012,07,06,08,53,12.80
2012,07,06,08,54,12.80
2012,07,06,08,55,12.80
2012,07,06,08,56,12.90
2012,07,06,08,57,12.90
2012,07,06,08,58,13.00
2012,07,06,08,59,13.00
2012,07,06,09,00,13.10
2012,07,06,09,01,13.10
2012,07,06,09,02,13.10
2012,07,06,09,03,13.20
2012,07,06,09,04,13.20
2012,07,06,09,05,13.20
2012,07,06,09,06,13.30
2012,07,06,09,07,13.30
2012,07,06,09,08,13.40
2012,07,06,09,09,13.40
2012,07,06,09,10,13.50
2012,07,06,09,11,13.60
2012,07,06,09,12,13.60
2012,07,06,09,13,13.70
2012,07,06,09,14,13.70
2012,07,06,09,15,13.80
2012,07,06,09,16,13.80
2012,07,06,09,17,13.90
2012,07,06,09,18,13.90
2012,07,06,09,19,14.00
2012,07,06,09,20,14.00
2012,07,06,09,21,14.00
2012,07,06,09,22,14.10
2012,07,06,09,23,14.10
2012,07,06,09,24,14.10
2012,07,06,09,25,14.10
2012,07,06,09,26,14.10
2012,07,06,09,27,14.10
2012,07,06,09,28,14.10
2012,07,06,09,29,14.20
2012,07,06,09,30,14.20
2012,07,06,09,31,14.20
2012,07,06,09,32,14.20
2012,07,06,09,33,14.20
2012,07,06,09,34,14.20
2012,07,06,09,35,14.20
2012,07,06,09,36,14.20
2012,07,06,09,37,14.20
2012,07,06,09,38,14.20
2012,07,06,09,39,14.20
2012,07,06,09,40,14.20
2012,07,06,09,41,14.30
2012,07,06,09,42,14.30
2012,07,06,09,43,14.30
2012,07,06,09,44,14.30
2012,07,06,09,45,14.30
2012,07,06,09,46,14.40
2012,07,06,09,47,14.40
2012,07,06,09,48,14.50
2012,07,06,09,49,14.60
2012,07,06,09,50,14.70
2012,07,06,09,51,14.70
2012,07,06,09,52,14.80
2012,07,06,09,53,14.90
2012,07,06,09,54,15.00
2012,07,06,09,55,15.00
2012,07,06,09,56,15.00
2012,07,06,09,57,15.10
2012,07,06,09,58,15.20
2012,07,06,09,59,15.30
2012,07,06,10,00,15.40
2012,07,06,10,01,15.50
2012,07,06,10,02,15.60
2012,07,06,10,03,15.70
2012,07,06,10,04,15.80
2012,07,06,10,05,15.90
2012,07,06,10,06,16.00
2012,07,06,10,07,16.10
2012,07,06,10,08,16.20
2012,07,06,10,09,16.30
2012,07,06,10,10,16.30
2012,07,06,10,11,16.30
2012,07,06,10,12,16.30
2012,07,06,10,13,16.40
2012,07,06,10,14,16.40
2012,07,06,10,15,16.50
2012,07,06,10,16,16.50
2012,07,06,10,17,16.50
2012,07,06,10,18,16.60
2012,07,06,10,19,16.60
2012,07,06,10,20,16.60
2012,07,06,10,21,16.70
2012,07,06,10,22,16.80
2012,07,06,10,23,16.80
2012,07,06,10,24,16.90
2012,07,06,10,25,17.00
2012,07,06,10,26,17.10
2012,07,06,10,27,17.20
2012,07,06,10,28,17.30
2012,07,06,10,29,17.30
2012,07,06,10,30,17.40
2012,07,06,10,31,17.50
2012,07,06,10,32,17.50
2012,07,06,10,33,17.60
2012,07,06,10,34,17.70
2012,07,06,10,35,17.70
2012,07,06,10,36,17.70
2012,07,06,10,37,17.70
2012,07,06,10,38,17.70
2012,07,06,10,39,17.80
2012,07,06,10,40,17.80
2012,07,06,10,41,17.80
2012,07,06,10,42,17.90
2012,07,06,10,43,18.00
2012,07,06,10,44,18.10
2012,07,06,10,45,18.20
2012,07,06,10,46,18.30
2012,07,06,10,47,18.50
2012,07,06,10,48,18.70
2012,07,06,10,49,18.90
2012,07,06,10,50,19.00
2012,07,06,10,51,19.20
2012,07,06,10,52,19.30
2012,07,06,10,53,19.40
2012,07,06,10,54,19.50
2012,07,06,10,55,19.60
2012,07,06,10,56,19.60
2012,07,06,10,57,19.60
2012,07,06,10,58,19.50
2012,07,06,10,59,19.40
2012,07,06,11,00,19.40
2012,07,06,11,01,19.40
2012,07,06,11,02,19.40
2012,07,06,11,03,19.30
2012,07,06,11,04,19.30
2012,07,06,11,05,19.30
2012,07,06,11,06,19.30
2012,07,06,11,07,19.30
2012,07,06,11,08,19.20
2012,07,06,11,09,19.10
2012,07,06,11,10,19.00
2012,07,06,11,11,18.90
2012,07,06,11,12,18.80
2012,07,06,11,13,18.70
2012,07,06,11,14,18.60
2012,07,06,11,15,18.60
2012,07,06,11,16,18.60
2012,07,06,11,17,18.50
2012,07,06,11,18,18.40
2012,07,06,11,19,18.30
2012,07,06,11,20,18.20
2012,07,06,11,21,18.20
2012,07,06,11,22,18.20
2012,07,06,11,23,18.20
2012,07,06,11,24,18.10
2012,07,06,11,25,18.20
2012,07,06,11,26,18.20
2012,07,06,11,27,18.30
2012,07,06,11,28,18.40
2012,07,06,11,29,18.40
2012,07,06,11,30,18.50
2012,07,06,11,31,18.60
2012,07,06,11,32,18.60
2012,07,06,11,33,18.70
2012,07,06,11,34,18.70
2012,07,06,11,35,18.80
2012,07,06,11,36,18.90
2012,07,06,11,37,19.00
2012,07,06,11,38,19.10
2012,07,06,11,39,19.10
2012,07,06,11,40,19.10
2012,07,06,11,41,19.00
2012,07,06,11,42,18.90
2012,07,06,11,43,18.90
2012,07,06,11,44,18.80
2012,07,06,11,45,18.70
2012,07,06,11,46,18.70
2012,07,06,11,47,18.50
2012,07,06,11,48,18.40
2012,07,06,11,49,18.30
2012,07,06,11,50,18.20
2012,07,06,11,51,18.20
2012,07,06,11,52,18.20
2012,07,06,11,53,18.30
2012,07,06,11,54,18.30
2012,07,06,11,55,18.40
2012,07,06,11,56,18.50
2012,07,06,11,57,18.60
2012,07,06,11,58,18.60
2012,07,06,11,59,18.70
2012,07,06,12,00,18.70
2012,07,06,12,01,18.80
2012,07,06,12,02,18.80
2012,07,06,12,03,18.80
2012,07,06,12,04,18.70
2012,07,06,12,05,18.60
2012,07,06,12,06,18.60
2012,07,06,12,07,18.60
2012,07,06,12,08,18.50
2012,07,06,12,09,18.40
2012,07,06,12,10,18.40
2012,07,06,12,11,18.40
2012,07,06,12,12,18.40
2012,07,06,12,13,18.50
2012,07,06,12,14,18.60
2012,07,06,12,15,18.60
2012,07,06,12,16,18.70
2012,07,06,12,17,18.70
2012,07,06,12,18,18.70
2012,07,06,12,19,18.70
2012,07,06,12,20,18.70
2012,07,06,12,21,18.80
2012,07,06,12,22,18.80
2012,07,06,12,23,18.80
2012,07,06,12,24,18.80
2012,07,06,12,25,18.90
2012,07,06,12,26,18.90
2012,07,06,12,27,18.90
2012,07,06,12,28,18.90
2012,07,06,12,29,18.90
2012,07,06,12,30,18.90
2012,07,06,12,31,18.90
2012,07,06,12,32,18.80
2012,07,06,12,33,18.80
2012,07,06,12,34,18.80
2012,07,06,12,35,18.90
2012,07,06,12,36,19.00
2012,07,06,12,37,19.10
2012,07,06,12,38,19.10
2012,07,06,12,39,19.10
2012,07,06,12,40,19.10
2012,07,06,12,41,19.10
2012,07,06,12,42,19.10
2012,07,06,12,43,19.10
2012,07,06,12,44,19.20
2012,07,06,12,45,19.40
2012,07,06,12,46,19.50
2012,07,06,12,47,19.60
2012,07,06,12,48,19.70
2012,07,06,12,49,19.80
2012,07,06,12,50,19.80
2012,07,06,12,51,19.80
2012,07,06,12,52,19.70
2012,07,06,12,53,19.70
2012,07,06,12,54,19.70
2012,07,06,12,55,19.70
2012,07,06,12,56,19.70
2012,07,06,12,57,19.70
2012,07,06,12,58,19.70
2012,07,06,12,59,19.70
2012,07,06,13,00,19.80
2012,07,06,13,01,19.80
2012,07,06,13,02,19.90
2012,07,06,13,03,19.90
2012,07,06,13,04,20.00
2012,07,06,13,05,20.10
2012,07,06,13,06,20.10
2012,07,06,13,07,20.10
2012,07,06,13,08,20.10
2012,07,06,13,09,20.10
2012,07,06,13,10,20.10
2012,07,06,13,11,20.20
2012,07,06,13,12,20.30
2012,07,06,13,13,20.30
2012,07,06,13,14,20.40
2012,07,06,13,15,20.50
2012,07,06,13,16,20.60
2012,07,06,13,17,20.70
2012,07,06,13,18,20.80
2012,07,06,13,19,20.80
2012,07,06,13,20,20.90
2012,07,06,13,21,20.90
2012,07,06,13,22,20.90
2012,07,06,13,23,20.90
2012,07,06,13,24,20.90
2012,07,06,13,25,20.90
2012,07,06,13,26,20.90
2012,07,06,13,27,20.90
2012,07,06,13,28,20.90
2012,07,06,13,29,20.80
2012,07,06,13,30,20.70
2012,07,06,13,31,20.60
2012,07,06,13,32,20.50
2012,07,06,13,33,20.40
2012,07,06,13,34,20.40
2012,07,06,13,35,20.30
2012,07,06,13,36,20.30
2012,07,06,13,37,20.20
2012,07,06,13,38,20.20
2012,07,06,13,39,20.20
2012,07,06,13,40,20.20
2012,07,06,13,41,20.10
2012,07,06,13,42,20.20
2012,07,06,13,43,20.20
2012,07,06,13,44,20.30
2012,07,06,13,45,20.30
2012,07,06,13,46,20.30
2012,07,06,13,47,20.30
2012,07,06,13,48,20.30
2012,07,06,13,49,20.30
2012,07,06,13,50,20.30
2012,07,06,13,51,20.40
2012,07,06,13,52,20.40
2012,07,06,13,53,20.50
2012,07,06,13,54,20.60
2012,07,06,13,55,20.60
2012,07,06,13,56,20.70
2012,07,06,13,57,20.70
2012,07,06,13,58,20.80
2012,07,06,13,59,20.70
2012,07,06,14,00,20.70
2012,07,06,14,01,20.70
2012,07,06,14,02,20.70
2012,07,06,14,03,20.80
2012,07,06,14,04,20.80
2012,07,06,14,05,20.80
2012,07,06,14,06,20.80
2012,07,06,14,07,20.90
2012,07,06,14,08,20.90
2012,07,06,14,09,21.00
2012,07,06,14,10,21.00
2012,07,06,14,11,21.10
2012,07,06,14,12,21.20
2012,07,06,14,13,21.30
2012,07,06,14,14,21.40
2012,07,06,14,15,21.40
2012,07,06,14,16,21.50
2012,07,06,14,17,21.60
2012,07,06,14,18,21.60
2012,07,06,14,19,21.70
2012,07,06,14,20,21.70
2012,07,06,14,21,21.60
2012,07,06,14,22,21.50
2012,07,06,14,23,21.40
2012,07,06,14,24,21.30
2012,07,06,14,25,21.20
2012,07,06,14,26,21.10
2012,07,06,14,27,21.00
2012,07,06,14,28,20.90
2012,07,06,14,29,20.80
2012,07,06,14,30,20.80
2012,07,06,14,31,20.70
2012,07,06,14,32,20.70
2012,07,06,14,33,20.70
2012,07,06,14,34,20.70
2012,07,06,14,35,20.70
2012,07,06,14,36,20.70
2012,07,06,14,37,20.80
2012,07,06,14,38,20.80
2012,07,06,14,39,20.90
2012,07,06,14,40,20.90
2012,07,06,14,41,21.00
2012,07,06,14,42,21.00
2012,07,06,14,43,21.10
2012,07,06,14,44,21.10
2012,07,06,14,45,21.20
2012,07,06,14,46,21.30
2012,07,06,14,47,21.30
2012,07,06,14,48,21.40
2012,07,06,14,49,21.40
2012,07,06,14,50,21.50
2012,07,06,14,51,21.50
2012,07,06,14,52,21.50
2012,07,06,14,53,21.60
2012,07,06,14,54,21.60
2012,07,06,14,55,21.60
2012,07,06,14,56,21.60
2012,07,06,14,57,21.60
2012,07,06,14,58,21.60
2012,07,06,14,59,21.60
2012,07,06,15,00,21.70
2012,07,06,15,01,21.80
2012,07,06,15,02,21.90
2012,07,06,15,03,22.00
2012,07,06,15,04,22.10
2012,07,06,15,05,22.20
2012,07,06,15,06,22.30
2012,07,06,15,07,22.50
2012,07,06,15,08,22.60
2012,07,06,15,09,22.70
2012,07,06,15,10,22.80
2012,07,06,15,11,22.90
2012,07,06,15,12,22.90
2012,07,06,15,13,23.00
2012,07,06,15,14,23.00
2012,07,06,15,15,23.10
2012,07,06,15,16,23.10
2012,07,06,15,17,23.10
2012,07,06,15,18,23.00
2012,07,06,15,19,22.90
2012,07,06,15,20,22.90
2012,07,06,15,21,22.90
2012,07,06,15,22,22.90
2012,07,06,15,23,22.90
2012,07,06,15,24,22.90
2012,07,06,15,25,22.90
2012,07,06,15,26,22.80
2012,07,06,15,27,22.60
2012,07,06,15,28,22.50
2012,07,06,15,29,22.30
2012,07,06,15,30,22.30
2012,07,06,15,31,22.20
2012,07,06,15,32,22.10
2012,07,06,15,33,22.00
2012,07,06,15,34,21.90
2012,07,06,15,35,21.90
2012,07,06,15,36,21.80
2012,07,06,15,37,21.80
2012,07,06,15,38,21.70
2012,07,06,15,39,21.70
2012,07,06,15,40,21.70
2012,07,06,15,41,21.70
2012,07,06,15,42,21.80
2012,07,06,15,43,21.80
2012,07,06,15,44,21.80
2012,07,06,15,45,21.80
2012,07,06,15,46,21.80
2012,07,06,15,47,21.90
2012,07,06,15,48,21.90
2012,07,06,15,49,22.10
2012,07,06,15,50,22.20
2012,07,06,15,51,22.30
2012,07,06,15,52,22.40
2012,07,06,15,53,22.50
2012,07,06,15,54,22.70
2012,07,06,15,55,22.90
2012,07,06,15,56,23.00
2012,07,06,15,57,23.10
2012,07,06,15,58,23.20
2012,07,06,15,59,23.20
2012,07,06,16,00,23.20
2012,07,06,16,01,23.20
2012,07,06,16,02,23.20
2012,07,06,16,03,23.20
2012,07,06,16,04,23.10
2012,07,06,16,05,23.10
2012,07,06,16,06,23.10
2012,07,06,16,07,23.10
2012,07,06,16,08,23.10
2012,07,06,16,09,23.20
2012,07,06,16,10,23.30
2012,07,06,16,11,23.40
2012,07,06,16,12,23.40
2012,07,06,16,13,23.50
2012,07,06,16,14,23.60
2012,07,06,16,15,23.70
2012,07,06,16,16,23.80
2012,07,06,16,17,23.90
2012,07,06,16,18,24.00
2012,07,06,16,19,24.10
2012,07,06,16,20,24.20
2012,07,06,16,21,24.20
2012,07,06,16,22,24.30
2012,07,06,16,23,24.30
2012,07,06,16,24,24.40
2012,07,06,16,25,24.40
2012,07,06,16,26,24.50
2012,07,06,16,27,24.50
2012,07,06,16,28,24.60
2012,07,06,16,29,24.70
2012,07,06,16,30,24.80
2012,07,06,16,31,24.90
2012,07,06,16,32,24.90
2012,07,06,16,33,25.00
2012,07,06,16,34,25.10
2012,07,06,16,35,25.10
2012,07,06,16,36,25.20
2012,07,06,16,37,25.30
2012,07,06,16,38,25.30
2012,07,06,16,39,25.30
2012,07,06,16,40,25.30
2012,07,06,16,41,25.30
2012,07,06,16,42,25.40
2012,07,06,16,43,25.40
2012,07,06,16,44,25.40
2012,07,06,16,45,25.50
2012,07,06,16,46,25.50
2012,07,06,16,47,25.60
2012,07,06,16,48,25.60
2012,07,06,16,49,25.50
2012,07,06,16,50,25.40
2012,07,06,16,51,25.30
2012,07,06,16,52,25.20
2012,07,06,16,53,25.10
2012,07,06,16,54,25.00
2012,07,06,16,55,24.90
2012,07,06,16,56,24.80
2012,07,06,16,57,24.60
2012,07,06,16,58,24.50
2012,07,06,16,59,24.40
2012,07,06,17,00,24.40
2012,07,06,17,01,24.40
2012,07,06,17,02,24.40
2012,07,06,17,03,24.50
2012,07,06,17,04,24.50
2012,07,06,17,05,24.60
2012,07,06,17,06,24.60
2012,07,06,17,07,24.70
2012,07,06,17,08,24.70
2012,07,06,17,09,24.70
2012,07,06,17,10,24.70
2012,07,06,17,11,24.70
2012,07,06,17,12,24.70
2012,07,06,17,13,24.70
2012,07,06,17,14,24.70
2012,07,06,17,15,24.70
2012,07,06,17,16,24.70
2012,07,06,17,17,24.60
2012,07,06,17,18,24.60
2012,07,06,17,19,24.60
2012,07,06,17,20,24.70
2012,07,06,17,21,24.70
2012,07,06,17,22,24.70
2012,07,06,17,23,24.70
2012,07,06,17,24,24.70
2012,07,06,17,25,24.70
2012,07,06,17,26,24.70
2012,07,06,17,27,24.60
2012,07,06,17,28,24.60
2012,07,06,17,29,24.60
2012,07,06,17,30,24.60
2012,07,06,17,31,24.60
2012,07,06,17,32,24.60